Regional Weather Roundup
Issued by NWS

Home | Current Version | Previous Version | Text Only | Print | Product List | Glossary Off
Versions: 1 2 3 4 5 6 7 8 9 10 11 12 13 14 15 16 17 18 19 20 21 22 23 24 25 26 27

000
ASUS45 KCYS 220210
RWRWY

WYOMING REGIONAL WEATHER ROUNDUP
NATIONAL WEATHER SERVICE CHEYENNE WY
700 PM MST SAT JAN 21 2017

NOTE:  "FAIR" INDICATES FEW OR NO CLOUDS BELOW 12,000 FEET
WITH NO SIGNIFICANT WEATHER AND/OR OBSTRUCTIONS TO VISIBILITY.

WYZ001-220300-
YELLOWSTONE NATIONAL PARK

CITY           SKY/WX    TMP DP  RH WIND       PRES   REMARKS
LK YELLOWSTONE   N/A     20  17  88 VRB5      29.63R WCI  13
W YELLOWSTONE  NOT AVBL

$$
WYZ002>013-054>058-071-098>099-220300-
NORTHERN WYOMING

CITY           SKY/WX    TMP DP  RH WIND       PRES   REMARKS
JACKSON        CLOUDY    21  19  93 CALM      29.67R
CODY           CLOUDY    24  18  77 E5        29.60R WCI  18
GREYBULL       CLOUDY    12   8  84 NW3       29.63R
WORLAND        CLOUDY    15  13  91 E6        29.61R WCI   6
SHERIDAN       FAIR      23  16  74 VRB6      29.58R WCI  16
BUFFALO        FAIR      26  19  74 W6        29.58R WCI  19
GILLETTE       FAIR      26  24  92 SW3       29.57R
HULETT         FAIR      27  23  86 W5        29.57R WCI  21
NEWCASTLE      FOG       23  23 100 CALM      29.56R VSB<1/4

$$
WYZ014>020-022>026-101>103-220300-
CENTRAL WYOMING

CITY           SKY/WX    TMP DP  RH WIND       PRES   REMARKS
BIG PINEY      CLOUDY    20  16  84 CALM      29.67R
PINEDALE       CLOUDY    18  14  86 SE3       29.67R
DUBOIS         NOT AVBL
LANDER         FAIR      18  14  84 CALM      29.60R
RIVERTON       MOCLDY   N/A N/A N/A SW3       29.60R
CASPER         FAIR      23  17  78 W7        29.58R WCI  15
DOUGLAS        FAIR      28  22  78 NW6       29.56R WCI  22

$$
WYZ021-027>030-104>119-220300-
SOUTHERN WYOMING

CITY           SKY/WX    TMP DP  RH WIND       PRES   REMARKS
EVANSTON       CLOUDY    20  15  81 W14       29.74R WCI   7
ROCK SPRINGS   CLOUDY    25  21  85 W16       29.67R WCI  12
RAWLINS        CLOUDY    21  16  81 W9        29.62R WCI  11
LARAMIE        CLOUDY    19  14  81 CALM      29.55R
CHEYENNE       FAIR      31  22  69 CALM      29.54R
TORRINGTON     CLOUDY    36  25  64 NW6       29.53R WCI  31

$$




USA.gov is the U.S. government's official web portal to all federal, state and local government web resources and services.